Zurück zum Katalog

HJS-6B

AktivWissenschaftVLEO
NORAD 63429·PAYLOAD·🇨🇳 China

Gestartet Apr 1, 2025 von Jiuquan Satellite Launch Center

Loading…

Nächste Überflüge (nächste 24 Stunden)

TLE

AktuellSource: Space-Track

Epoche: Sep 14, 2026, 14:43 UTC

1 63429U 25067B   26257.61388448  .00014123  00000-0  67440-3 0  9993
2 63429  54.9972 356.8385 0006397 169.2998 190.8158 15.19322657 81539

Verfolge HJS-6B in Echtzeit mit AllMySat

Download on the App Store